This demonstration page uses our WeatherBlox Daily Observations layout. Learn more.

Left ArrowRight Arrow

41.55636, -103.73856

Hourly Observations for September 9, 2015

Temp ( °F °C ) Dew Point ( °F °C ) Humidity (%) Winds ( mph kmh ) Pressure ( in mb ) Visibility ( mi km ) Precip ( " mm )
12:53 am 00:53 Clear 53 11.7 45 7.2 74 74 ENE 12 19 30 1016 10 16.0934 0 0
1:53 am 01:53 Clear 53 11.7 48 8.9 83 83 ENE 12 19 29.98 1015 10 16.0934 0 0
2:53 am 02:53 Clear 51 10.6 48 8.9 89 89 ENE 12 19 29.97 1015 10 16.0934 0 0
3:53 am 03:53 Clear 52 11.1 49 9.4 89 89 ENE 9 15 29.97 1015 8 12.87472 0 0
4:53 am 04:53 Clear with Mist and Fog 49 9.4 48 8.9 97 97 ENE 7 11 29.97 1015 6 9.65604 0 0
5:02 am 05:02 Partly Cloudy with Mist and Fog 50 10 48 9 94 94 ENE 7 11 30.03 1017 6 9.65604 0 0
5:11 am 05:11 Mostly Cloudy with Mist and Fog 50 10 49 9.4 96 96 VRB 6 9 30.03 1017 3 4.82802 0 0
5:21 am 05:21 Mostly Cloudy with Mist and Fog 49 9.4 48 8.9 97 97 ENE 7 11 30.03 1017 5 8.0467 0 0
5:28 am 05:28 Partly Cloudy 48 9 46 8 94 94 ENE 6 9 30.03 1017 7 11.26538 0 0
5:53 am 05:53 Clear with Mist and Fog 48 8.9 46 7.8 93 93 NNE 8 13 29.97 1015 1.25 2.011675 0 0
5:58 am 05:58 Mostly Cloudy with Fog 48 9 46 8 94 94 NE 9 15 30.03 1017 0.25 0.402335 0 0
6:16 am 06:16 Mostly Cloudy with Fog 46 8 45 7 93 93 NE 9 15 30.06 1018 0.5 0.80467 0 0
6:20 am 06:20 Mostly Clear with Mist and Fog 46 8 46 8 100 100 NE 9 15 30.06 1018 1.25 2.011675 0 0
6:37 am 06:37 Sunny with Fog 44 6.7 43 6.1 96 96 WNW 20 31 30.06 1018 0.25 0.402335 0 0
6:43 am 06:43 Mostly Cloudy with Fog 43 6.1 42 5.6 97 97 NW 13 20 30.09 1019 0.25 0.402335 0 0
6:50 am 06:50 Mostly Cloudy with Fog 45 7 43 6 93 93 NNW 14 22 30.06 1018 5 8.0467 0 0
6:53 am 06:53 Mostly Cloudy with Fog 45 7.2 44 6.7 97 97 NNW 13 20 29.99 1016 5 8.0467 0 0
7:34 am 07:34 Mostly Cloudy with Mist and Fog 48 9 48 9 100 100 NW 16 26 30.06 1018 1.25 2.011675 0 0
7:37 am 07:37 Mostly Cloudy with Mist and Fog 49 9.4 48 8.9 97 97 NW 16 26 30.06 1018 3 4.82802 0 0
7:46 am 07:46 Partly Cloudy 49 9.4 46 7.8 90 90 WNW 21 33 30.06 1018 9 14.48406 0 0
7:53 am 07:53 Mostly Sunny 50 10 45 7.2 83 83 NW 16 26 30.01 1016 10 16.0934 0 0
8:53 am 08:53 Sunny 58 14.4 47 8.3 67 67 WNW 21 33 30 1016 10 16.0934 0 0
9:53 am 09:53 Sunny 64 17.8 47 8.3 54 54 NW 17 28 30 1016 10 16.0934 0 0
10:53 am 10:53 Sunny 72 22.2 40 4.4 31 31 WNW 18 30 29.98 1015 10 16.0934 0 0
11:53 am 11:53 Sunny 77 25 37 2.8 24 24 WNW 21 33 29.96 1015 10 16.0934 0 0
12:53 pm 12:53 Sunny 82 27.8 33 0.6 17 17 WNW 20 31 29.93 1014 10 16.0934 0 0
1:53 pm 13:53 Sunny 85 29.4 28 -2.2 13 13 NW 17 28 29.91 1013 10 16.0934 0 0
2:53 pm 14:53 Sunny 84 28.9 28 -2.2 13 13 WNW 14 22 29.89 1012 10 16.0934 0 0
3:53 pm 15:53 Sunny 85 29.4 29 -1.7 13 13 WNW 17 28 29.87 1012 10 16.0934 0 0
4:53 pm 16:53 Sunny 86 30 28 -2.2 12 12 NW 15 24 29.86 1011 10 16.0934 0 0
5:53 pm 17:53 Sunny 80 26.7 41 5 25 25 NW 15 24 29.86 1011 10 16.0934 0 0
6:23 pm 18:23 Sunny 77 25 43 6.1 30 30 NE 15 24 29.71 1006 10 16.0934 0 0
6:53 pm 18:53 Sunny 74 23.3 39 3.9 28 28 NE 14 22 29.89 1012 10 16.0934 0 0
7:53 pm 19:53 Clear 65 18.3 43 6.1 45 45 NE 15 24 29.93 1014 10 16.0934 0 0
8:53 pm 20:53 Clear 64 17.8 40 4.4 41 41 ENE 7 11 29.94 1014 10 16.0934 0 0
9:53 pm 21:53 Clear 59 15 44 6.7 58 58 ENE 10 17 29.95 1014 10 16.0934 0 0
10:53 pm 22:53 Clear 57 13.9 44 6.7 62 62 NE 9 15 29.94 1014 10 16.0934 0 0
11:53 pm 23:53 Clear 56 13.3 41 5 57 57 NE 8 13 29.94 1014 10 16.0934 0 0

Powered by AerisWeather